Погода в Скоморохово

Россия / Ярославская область     56°59′10″N   38°43′40″E
темп.,
°C
ветер,
м/с
пор.,
м/с
влажн.,
%
обл.,
%
осадки,
мм/ч
давл.,
гПа
погр.,
м
27 сентября, пн
пн2700:00+8ссв3992100 0.3 1016464
03:00+6ссз31096100 0.4 1018334
06:00+7с41095100 0.1 1019527
09:00+8с41094100 0.3 1021667
12:00+9с498999 0.1 1022726
15:00+10с4986100 0.4 1023919
18:00+8ссв4992100 0.4 1024804
21:00+8св4992100 0.5 10251001
28 сентября, вт
вт2800:00+7св4991100 0.3 1027807
03:00+6св3887100 0.3 1028750
06:00+5св3890100 0.0 1030558
09:00+5всв478531 0.0 1031492
12:00+9всв35625 0.0 1032910
15:00+10св345196 0.0 10321074
18:00+6ссв227476 0.0 103437
21:00+4ссв2281100 0.0 103431
29 сентября, ср
ср2900:00+4ссв2283100 0.0 103517
03:00+3с2287100 0.0 103522
06:00+3с229299 0.0 103631
09:00+7с2381100 0.0 1036258
12:00+10ссв236645 0.0 1035866
15:00+11с236291 0.0 10341165
18:00+9ссз227474 0.0 103424
21:00+6с119198 0.0 103510
30 сентября, чт
чт3000:00+8сз1184100 0.0 103511
03:00+7зсз1186100 0.0 103522
06:00+6сз129255 0.0 103523
09:00+9ссз1380100 0.0 1035246
12:00+11сз127237 0.0 1035634
15:00+13сз1265100 0.0 10341098
18:00+10сз1176100 0.0 103426
21:00+10зсз228298 0.0 103561
1 октября, пт
пт100:00+9з2385100 0.0 103595
03:00+9з2485100 0.0 1035134
06:00+8з2488100 0.0 1035163
09:00+9з2380100 0.0 1035179
12:00+12з236482 0.0 1035627
15:00+13зюз235534 0.0 10341279
18:00+9зюз22770 0.0 103314
21:00+7юз22840 0.0 103424